Location: Marse
(42.1502°N, 110.9866°W)
Time: 20:06:56
(UTC+00:00)

ITUPSAT 1 - Pass Details

Date: 06 July 2022
Orbit: 701 x 711 km, 98.6° (Epoch: 08 August)

Event Time Altitude Azimuth Distance (km) Brightness Sun altitude
Rises 04:46:57 0° 2° (N) 3,112 ? -15.2°
Reaches altitude 10° 04:49:28 10° 351° (N) 2,190 ? -15.5°
Maximum altitude 04:53:30 28° 294° (WNW) 1,331 ? -15.9°
Drops below altitude 10° 04:57:31 10° 236° (SW) 2,181 ? -16.4°
Sets 05:00:02 0° 225° (SW) 3,097 ? -16.6°
